Location: ?????
(31.7405°N, 35.1927°E)
Time: 18:33:48
(UTC+00:00)

Cosmos 1869 - Pass Details

Date: 17 February 2020
Orbit: 524 x 559 km, 82.5° (Epoch: 27 March)

Event Time Altitude Azimuth Distance (km) Brightness Sun altitude
Rises 02:40:26 0° 175° (S) 2,718 6.9 -21.8°
Reaches altitude 10° 02:42:38 10° 170° (S) 1,824 6.1 -21.3°
Maximum altitude 02:46:32 53° 94° (E) 679 4.1 -20.5°
Drops below altitude 10° 02:50:26 10° 17° (NNE) 1,818 6.1 -19.7°
Sets 02:52:37 0° 12° (NNE) 2,708 7.0 -19.2°
